Weather History for Allentown, PA

Change the Weather History Date:

Friday, November 8, 2013

  Actual Average Record
Temperature  
Mean Temperature 41 °F 45 °F  
Max Temperature 49 °F 56 °F 74 °F (1975)
Min Temperature 32 °F 35 °F 20 °F (1960)
Degree Days  
Heating Degree Days 24 20  
Month to date heating degree days 144 149  
Since 1 July heating degree days 576 660  
Cooling Degree Days 0 0  
Month to date cooling degree days 0 0  
Year to date cooling degree days 927 757  
Moisture  
Dew Point 27 °F    
Average Humidity 59    
Maximum Humidity 75    
Minimum Humidity 42    
Precipitation  
Precipitation 0.00 in 0.10 in 3.35 in (1972)
Month to date precipitation 0.34 0.87  
Year to date precipitation 39.67 39.14  
Snow  
Snow 0.00 in 0.00 in 0.50 in (1910)
Month to date snowfall 0.0 0.0  
Since 1 July snowfall 0.0 0.0  
Since 1 September snowfall 0.0 0.0  
Snow Depth 0.00 in    
Sea Level Pressure  
Sea Level Pressure 30.11 in    
Wind  
Wind Speed 10 mph (West)    
Max Wind Speed 22 mph    
Max Gust Speed 30 mph    
Visibility 10 miles    
Events Rain    
T = Trace of Precipitation, MM = Missing Value Source: NWS Daily Summary

Daily Weather History Graph

Daily Weather History Graph

Search for Another Location

Airport:

Trip Planner

Search our weather history database for the weather conditions in past years. The results will help you decide how hot, cold, wet, or windy it might be!

Date:

Astronomy

Nov. 08, 2013 Rise Set
Actual Time 6:40 AM EST 4:50 PM EST
Civil Twilight 6:11 AM EST 5:18 PM EST
Nautical Twilight 5:38 AM EST 5:51 PM EST
Astronomical Twilight 5:06 AM EST 6:23 PM EST
Moon 11:34 AM EST (11/8) 10:08 PM EST (11/8)
Length of Visible Light 11h 07m
Length of Day
10h 09m
Waxing Crescent, 33% of the Moon is Illuminated
Nov 8
Waxing Crescent
Nov 10
First Quarter
Nov 17
Full
Nov 25
Last Quarter
Dec 2
New

Hourly Weather History & Observations

Time (EST) Temp. Windchill Dew Point Humidity Pressure Visibility Wind Dir Wind Speed Gust Speed Precip Events Conditions
12:51 AM 42.1 °F 35.2 °F 28.9 °F 60% 30.00 in 10.0 mi WNW 12.7 mph - N/A   Overcast
1:51 AM 39.9 °F 33.9 °F 27.0 °F 60% 30.01 in 10.0 mi West 9.2 mph - N/A   Mostly Cloudy
2:51 AM 35.1 °F 30.1 °F 27.0 °F 72% 30.01 in 10.0 mi West 5.8 mph - N/A   Clear
3:51 AM 36.0 °F 31.1 °F 25.0 °F 64% 30.02 in 10.0 mi West 5.8 mph - N/A   Clear
4:51 AM 32.0 °F 28.7 °F 25.0 °F 75% 30.03 in 10.0 mi SW 3.5 mph - N/A   Clear
5:51 AM 36.0 °F 30.3 °F 25.0 °F 64% 30.04 in 10.0 mi WSW 6.9 mph - N/A   Clear
6:51 AM 37.0 °F 30.4 °F 26.1 °F 65% 30.05 in 10.0 mi WSW 9.2 mph - N/A   Clear
7:51 AM 39.0 °F 32.8 °F 28.9 °F 67% 30.07 in 10.0 mi West 9.2 mph - N/A   Partly Cloudy
8:51 AM 41.0 °F 33.9 °F 30.9 °F 67% 30.09 in 10.0 mi West 12.7 mph - 0.00 in Rain Light Rain
9:51 AM 44.1 °F 37.4 °F 30.9 °F 60% 30.08 in 10.0 mi West 13.8 mph - 0.00 in Rain Light Rain
10:51 AM 46.0 °F 39.6 °F 28.0 °F 50% 30.09 in 10.0 mi WNW 15.0 mph 23.0 mph 0.00 in   Overcast
11:51 AM 46.9 °F - 28.0 °F 48% 30.09 in 10.0 mi WNW 16.1 mph 29.9 mph N/A   Mostly Cloudy
12:51 PM 46.0 °F 38.8 °F 25.0 °F 44% 30.09 in 10.0 mi NW 18.4 mph 24.2 mph N/A   Overcast
1:51 PM 48.9 °F - 28.0 °F 44% 30.09 in 10.0 mi West 13.8 mph 23.0 mph N/A   Mostly Cloudy
2:51 PM 46.9 °F - 25.0 °F 42% 30.11 in 10.0 mi NW 18.4 mph 26.5 mph N/A   Mostly Cloudy
3:51 PM 46.0 °F 40.2 °F 27.0 °F 47% 30.13 in 10.0 mi WNW 12.7 mph 25.3 mph N/A   Clear
4:51 PM 44.1 °F 38.1 °F 26.1 °F 49% 30.15 in 10.0 mi West 11.5 mph 19.6 mph N/A   Clear
5:51 PM 42.1 °F 37.7 °F 27.0 °F 55% 30.18 in 10.0 mi West 6.9 mph - N/A   Partly Cloudy
6:51 PM 37.0 °F 31.0 °F 28.0 °F 70% 30.21 in 10.0 mi WSW 8.1 mph - N/A   Mostly Cloudy
7:51 PM 41.0 °F 36.4 °F 27.0 °F 57% 30.21 in 10.0 mi West 6.9 mph - N/A   Partly Cloudy
8:51 PM 39.0 °F 34.0 °F 27.0 °F 62% 30.23 in 10.0 mi WNW 6.9 mph - N/A   Clear
9:51 PM 37.0 °F 33.3 °F 27.0 °F 67% 30.24 in 10.0 mi West 4.6 mph - N/A   Partly Cloudy
10:51 PM 34.0 °F 29.8 °F 26.1 °F 73% 30.25 in 10.0 mi SW 4.6 mph - N/A   Clear
11:51 PM 36.0 °F 31.1 °F 26.1 °F 67% 30.25 in 10.0 mi West 5.8 mph - N/A   Clear